Weather History for Marshfield, WI

Change the Weather History Date:

Tuesday, December 4, 2012

  Actual Average Record
Temperature  
Mean Temperature 29 °F -  
Max Temperature 39 °F 29 °F 59 °F (2001)
Min Temperature 19 °F 13 °F -16 °F (1919)
Degree Days  
Heating Degree Days 36    
Moisture  
Dew Point 21 °F    
Average Humidity 64    
Maximum Humidity 79    
Minimum Humidity 54    
Precipitation  
Precipitation 0.00 in - - ()
Sea Level Pressure  
Sea Level Pressure 30.11 in    
Wind  
Wind Speed 11 mph (WNW)    
Max Wind Speed 20 mph    
Max Gust Speed 28 mph    
Visibility 10 miles    
Events      
Averages and records for this station are not official NWS values.
T = Trace of Precipitation, MM = Missing Value Source: NWS Daily Summary

Daily Weather History Graph

Daily Weather History Graph

Search for Another Location

Airport:

Trip Planner

Search our weather history database for the weather conditions in past years. The results will help you decide how hot, cold, wet, or windy it might be!

Date:

Astronomy

Dec. 04, 2012 Rise Set
Actual Time 7:21 AM CST 4:20 PM CST
Civil Twilight 6:48 AM CST 4:53 PM CST
Nautical Twilight 6:11 AM CST 5:30 PM CST
Astronomical Twilight 5:36 AM CST 6:05 PM CST
Moon 10:18 PM CST (12/4) 11:07 AM CST (12/4)
Length of Visible Light 10h 05m
Length of Day
8h 59m
Waning Gibbous, 69% of the Moon is Illuminated
Dec 4
Waning Gibbous
Dec 6
Last Quarter
Dec 13
New
Dec 19
First Quarter
Dec 28
Full

Hourly Weather History & Observations

Time (CST) Temp. Windchill Dew Point Humidity Pressure Visibility Wind Dir Wind Speed Gust Speed Precip Events Conditions
12:54 AM 39.9 °F 33.9 °F 33.1 °F 77% 29.89 in 10.0 mi West 9.2 mph - N/A   Clear
1:54 AM 37.9 °F 30.9 °F 32.0 °F 79% 29.90 in 10.0 mi West 10.4 mph - N/A   Clear
2:54 AM 37.0 °F 30.4 °F 30.0 °F 76% 29.91 in 10.0 mi West 9.2 mph - N/A   Clear
3:54 AM 37.0 °F 31.0 °F 30.0 °F 76% 29.91 in 10.0 mi WSW 8.1 mph - N/A   Clear
4:54 AM 37.9 °F 30.9 °F 28.0 °F 68% 29.93 in 10.0 mi West 10.4 mph - N/A   Clear
5:54 AM 37.0 °F 30.4 °F 28.0 °F 70% 29.96 in 10.0 mi WSW 9.2 mph 19.6 mph N/A   Clear
6:54 AM 35.1 °F 28.6 °F 27.0 °F 72% 30.00 in 10.0 mi West 8.1 mph - N/A   Clear
7:54 AM 35.1 °F 27.9 °F 26.1 °F 70% 30.02 in 10.0 mi West 9.2 mph - N/A   Clear
8:54 AM 36.0 °F 27.1 °F 26.1 °F 67% 30.04 in 10.0 mi West 13.8 mph - N/A   Clear
9:54 AM 36.0 °F 25.3 °F 25.0 °F 64% 30.05 in 10.0 mi West 19.6 mph 25.3 mph N/A   Clear
10:54 AM 37.9 °F 28.5 °F 24.1 °F 57% 30.06 in 10.0 mi West 17.3 mph 25.3 mph N/A   Clear
11:54 AM 39.0 °F 30.6 °F 24.1 °F 55% 30.05 in 10.0 mi West 15.0 mph 23.0 mph N/A   Clear
12:54 PM 37.9 °F 27.9 °F 23.0 °F 55% 30.07 in 10.0 mi WNW 19.6 mph 25.3 mph N/A   Clear
1:54 PM 37.0 °F 27.7 °F 21.9 °F 54% 30.09 in 10.0 mi WNW 16.1 mph 27.6 mph N/A   Clear
2:54 PM 34.0 °F 24.2 °F 19.9 °F 56% 30.13 in 10.0 mi WNW 15.0 mph 24.2 mph N/A   Clear
3:54 PM 30.9 °F 19.8 °F 18.0 °F 59% 30.18 in 10.0 mi NW 16.1 mph 27.6 mph N/A   Clear
4:54 PM 28.0 °F 17.5 °F 16.0 °F 61% 30.21 in 10.0 mi WNW 12.7 mph 21.9 mph N/A   Clear
5:54 PM 27.0 °F 16.1 °F 14.0 °F 58% 30.24 in 10.0 mi NW 12.7 mph - N/A   Clear
6:54 PM 26.1 °F 13.6 °F 12.9 °F 58% 30.27 in 10.0 mi NW 16.1 mph - N/A   Clear
7:54 PM 24.1 °F 12.0 °F 10.9 °F 57% 30.28 in 10.0 mi NW 13.8 mph - N/A   Clear
8:54 PM 23.0 °F 11.1 °F 10.9 °F 60% 30.31 in 10.0 mi NNW 12.7 mph - N/A   Clear
9:54 PM 21.9 °F 11.7 °F 10.9 °F 63% 30.33 in 10.0 mi North 9.2 mph - N/A   Clear
10:54 PM 19.9 °F 11.1 °F 10.9 °F 68% 30.36 in 10.0 mi NNW 6.9 mph - N/A   Clear
11:54 PM 19.9 °F 13.4 °F 10.0 °F 65% 30.38 in 10.0 mi North 4.6 mph - N/A   Clear